QPF
0.00 0.01 0.03 0.47 0.13 0.01 0.01 0.01 0.01 0.00 0.01 0.01 0.01 0.00 0.01 0.01 0.01 0.09 0.02 0.01 0.01 0.01 0.01 0.01 0.03 0.08 0.09 0.02 0.01 0.01 0.00 0.00 0.01 0.01 0.01 0.02 0.01 0.02 0.10 0.18 0.12 0.04
0.00 0.00 0.01 0.01 0.00 0.00 0.01 0.01 0.01 0.01 0.01 0.01 0.01 0.01 0.01 0.02 0.01 0.15 0.30 0.02 0.01 0.01 0.01 0.03 0.02 0.03 0.03 0.01 0.00 0.01 0.01 0.01 0.01 0.00 0.01 0.01 0.01 0.01 0.05 0.15 0.30 0.22
0.01 0.01 0.05 0.01 0.01 0.07 0.18 0.24 0.09 0.01 0.00 0.00 0.00 0.01 0.01 0.01 0.01 0.01 0.07 0.10 0.01 0.01 0.01 0.01 0.13 0.03 0.01 0.01 0.00 0.00 0.01 0.01 0.00 0.01 0.01 0.01 0.01 0.01 0.02 0.02 0.14 0.02
0.01 0.00 0.01 0.01 0.23 0.33 0.06 0.02 0.05 0.02 0.02 0.02 0.01 0.01 0.01 0.01 0.01 0.00 0.01 0.00 0.01 0.01 0.01 0.03 0.08 0.05 0.06 0.33 0.40 0.19 0.05 0.01 0.00 0.01 0.01 0.02 0.01 0.01 0.01 0.01 0.04 0.05
0.01 0.01 0.01 0.08 0.12 0.03 0.02 0.02 0.02 0.01 0.01 0.01 0.01 0.01 0.02 0.01 0.01 0.01 0.00 0.00 0.00 0.00 0.00 0.00 0.07 0.06 0.46 0.41 0.07 0.10 0.02 0.02 0.01 0.01 0.01 0.04 0.02 0.01 0.01 0.01 0.01 0.13
0.00 0.01 0.01 0.01 0.01 0.07 0.01 0.01 0.01 0.02 0.02 0.01 0.01 0.01 0.01 0.01 0.01 0.01 0.01 0.01 0.01 0.01 0.01 0.01 0.01 0.44 0.16 0.22 0.04 0.01 0.01 0.01 0.01 0.01 0.01 0.01 0.01 0.01 0.01 0.01 0.01 0.00
0.01 0.01 0.01 0.01 0.03 0.03 0.06 0.04 0.02 0.01 0.01 0.00 0.01 0.01 0.01 0.01 0.01 0.01 0.00 0.00 0.00 0.00 0.00 0.00 0.02 0.12 0.04 0.08 0.03 0.01 0.01 0.01 0.01 0.01 0.01 0.01 0.01 0.01 0.00 0.00 0.00 0.00
0.00 0.01 0.01 0.32 0.02 0.02 0.03 0.03 0.02 0.02 0.01 0.00 0.00 0.01 0.00 0.00 0.00 0.00 0.00 0.00 0.00 0.00 0.09 0.02 0.02 0.07 0.23 0.05 0.01 0.02 0.01 0.01 0.01 0.01 0.01 0.01 0.01 0.00 0.00 0.00 0.00 0.01
0.00 0.00 0.01 0.01 0.02 0.02 0.03 0.04 0.02 0.02 0.01 0.01 0.00 0.00 0.00 0.00 0.00 0.00 0.00 0.00 0.00 0.04 0.02 0.07 0.11 0.05 0.07 0.04 0.00 0.00 0.00 0.01 0.01 0.01 0.01 0.01 0.01 0.00 0.00 0.00 0.00 0.00
0.00 0.00 0.01 0.01 0.01 0.03 0.06 0.11 0.04 0.02 0.02 0.01 0.00 0.01 0.00 0.00 0.00 0.00 0.00 0.00 0.00 0.00 0.00 0.00 0.00 0.00 0.00 0.00 0.00 0.00 0.00 0.00 0.01 0.01 0.01 0.01 0.01 0.00 0.00 0.01 0.00 0.00
0.00 0.01 0.02 0.02 0.02 0.04 0.10 0.20 0.09 0.08 0.10 0.02 0.01 0.01 0.00 0.00 0.00 0.00 0.00 0.00 0.00 0.00 0.00 0.00 0.00 0.00 0.00 0.00 0.00 0.00 0.00 0.00 0.01 0.01 0.01 0.01 0.01 0.01 0.00 0.01 0.01 0.01
0.00 0.00 0.03 0.08 0.05 0.11 0.12 0.23 0.23 0.08 0.09 0.05 0.01 0.01 0.00 0.00 0.00 0.00 0.00 0.00 0.00 0.00 0.00 0.00 0.00 0.00 0.00 0.00 0.00 0.00 0.00 0.01 0.01 0.01 0.01 0.01 0.01 0.01 0.01 0.01 0.01 0.01
0.00 0.00 0.01 0.03 0.11 0.12 0.18 0.19 0.20 0.15 0.08 0.03 0.01 0.01 0.00 0.00 0.00 0.00 0.00 0.00 0.00 0.00 0.00 0.00 0.00 0.00 0.00 0.00 0.00 0.00 0.00 0.00 0.01 0.01 0.01 0.01 0.01 0.01 0.01 0.01 0.01 0.05
0.00 0.00 0.01 0.02 0.07 0.09 0.15 0.17 0.17 0.19 0.19 0.09 0.05 0.00 0.00 0.00 0.00 0.00 0.00 0.00 0.00 0.00 0.00 0.00 0.00 0.00 0.00 0.00 0.00 0.00 0.00 0.00 0.00 0.00 0.01 0.01 0.01 0.01 0.01 0.01 0.14 0.34
0.00 0.00 0.01 0.02 0.05 0.10 0.16 0.21 0.16 0.26 0.11 0.13 0.07 0.01 0.00 0.00 0.00 0.00 0.00 0.00 0.00 0.00 0.00 0.00 0.00 0.00 0.00 0.00 0.00 0.00 0.00 0.00 0.00 0.00 0.00 0.00 0.00 0.00 0.00 0.01 0.04 0.13
0.00 0.00 0.01 0.02 0.08 0.13 0.15 0.08 0.05 0.08 0.04 0.03 0.05 0.01 0.00 0.00 0.00 0.00 0.00 0.00 0.00 0.00 0.00 0.00 0.00 0.00 0.00 0.00 0.00 0.00 0.00 0.00 0.00 0.00 0.00 0.00 0.00 0.00 0.00 0.00 0.00 0.00
0.00 0.00 0.00 0.01 0.04 0.08 0.16 0.36 0.21 0.17 0.04 0.02 0.01 0.00 0.04 0.00 0.00 0.00 0.00 0.00 0.00 0.00 0.00 0.00 0.00 0.00 0.00 0.00 0.00 0.00 0.00 0.00 0.00 0.00 0.00 0.00 0.00 0.00 0.00 0.00 0.00 0.00
0.00 0.00 0.00 0.00 0.01 0.02 0.04 0.12 0.24 0.09 0.02 0.04 0.00 0.00 0.00 0.00 0.02 0.00 0.00 0.00 0.00 0.00 0.00 0.00 0.00 0.00 0.00 0.00 0.00 0.00 0.00 0.00 0.00 0.00 0.00 0.00 0.00 0.00 0.00 0.00 0.00 0.00
0.00 0.00 0.00 0.00 0.00 0.00 0.01 0.01 0.03 0.06 0.07 0.03 0.01 0.01 0.00 0.00 0.01 0.02 0.00 0.00 0.00 0.00 0.00 0.00 0.00 0.00 0.00 0.00 0.00 0.00 0.00 0.00 0.00 0.00 0.00 0.00 0.00 0.00 0.00 0.00 0.00 0.00
0.00 0.00 0.00 0.00 0.00 0.00 0.00 0.00 0.01 0.01 0.02 0.04 0.05 0.03 0.02 0.00 0.00 0.00 0.00 0.00 0.00 0.00 0.00 0.00 0.00 0.00 0.00 0.00 0.00 0.00 0.00 0.00 0.00 0.00 0.00 0.00 0.00 0.00 0.00 0.00 0.00 0.00
0.00 0.00 0.00 0.00 0.00 0.00 0.00 0.00 0.00 0.06 0.02 0.08 0.19 0.18 0.11 0.01 0.00 0.01 0.03 0.00 0.00 0.00 0.00 0.00 0.00 0.00 0.00 0.00 0.00 0.00 0.00 0.00 0.00 0.00 0.00 0.00 0.00 0.00 0.00 0.00 0.00 0.00
0.00 0.00 0.00 0.00 0.00 0.00 0.00 0.00 0.00 0.00 0.00 0.02 0.05 0.03 0.03 0.02 0.01 0.00 0.03 0.25 0.15 0.00 0.00 0.00 0.00 0.00 0.00 0.00 0.00 0.00 0.00 0.00 0.00 0.00 0.00 0.00 0.00 0.00 0.00 0.00 0.00 0.00
0.00 0.00 0.00 0.00 0.00 0.00 0.00 0.00 0.00 0.00 0.01 0.01 0.02 0.10 0.23 0.22 0.11 0.05 0.03 0.00 0.01 0.03 0.01 0.00 0.00 0.00 0.00 0.00 0.00 0.00 0.00 0.00 0.00 0.00 0.00 0.00 0.00 0.00 0.00 0.00 0.00 0.00
0.00 0.00 0.00 0.00 0.00 0.00 0.00 0.00 0.00 0.00 0.01 0.01 0.02 0.04 0.10 0.22 0.24 0.15 0.12 0.09 0.06 0.03 0.01 0.08 0.01 0.00 0.00 0.00 0.00 0.00 0.00 0.00 0.00 0.00 0.00 0.00 0.00 0.00 0.00 0.00 0.00 0.00
0.00 0.00 0.00 0.00 0.00 0.00 0.00 0.00 0.00 0.00 0.00 0.01 0.02 0.03 0.05 0.09 0.12 0.16 0.18 0.15 0.12 0.14 0.04 0.03 0.02 0.01 0.00 0.00 0.00 0.00 0.00 0.00 0.00 0.00 0.00 0.00 0.00 0.00 0.00 0.00 0.00 0.00
0.00 0.00 0.00 0.00 0.00 0.00 0.00 0.00 0.00 0.00 0.00 0.00 0.01 0.02 0.04 0.05 0.07 0.09 0.12 0.18 0.20 0.19 0.24 0.20 0.07 0.07 0.02 0.00 0.00 0.00 0.00 0.01 0.00 0.00 0.00 0.00 0.00 0.00 0.00 0.00 0.00 0.00
MSLP
1016.34 1016.22 1016.30 1016.30 1016.26 1016.42 1016.50 1016.46 1016.18 1016.18 1016.22 1016.34 1016.34 1016.06 1016.14 1016.18 1016.14 1016.26 1016.30 1016.42 1016.82 1017.18 1017.50 1017.70 1018.02 1018.42 1018.50 1018.50 1018.78 1019.06 1019.10 1019.14 1019.14 1019.22 1019.30 1019.46 1019.62 1019.86 1020.22 1020.34 1020.38 1020.30
1016.46 1016.22 1016.18 1016.18 1016.22 1016.26 1016.10 1015.82 1015.58 1015.58 1015.78 1016.02 1016.10 1016.02 1016.02 1016.10 1016.14 1016.18 1016.26 1016.34 1016.58 1016.90 1017.18 1017.54 1017.86 1018.26 1018.46 1018.50 1018.62 1018.74 1018.82 1018.90 1019.02 1018.98 1019.22 1019.38 1019.50 1019.66 1019.86 1020.10 1020.22 1020.10
1016.46 1016.22 1016.10 1016.06 1015.98 1015.86 1015.66 1015.46 1015.38 1015.34 1015.42 1015.62 1015.74 1015.82 1015.94 1016.02 1016.02 1016.18 1016.30 1016.34 1016.54 1016.78 1017.06 1017.38 1017.66 1017.90 1018.10 1018.34 1018.50 1018.66 1018.78 1018.86 1018.94 1018.94 1019.10 1019.22 1019.30 1019.50 1019.54 1019.78 1019.86 1019.94
1016.38 1016.06 1015.78 1015.66 1015.58 1015.54 1015.58 1015.66 1015.46 1015.46 1015.54 1015.62 1015.66 1015.70 1015.74 1015.82 1015.82 1016.02 1016.14 1016.18 1016.38 1016.58 1016.86 1017.14 1017.42 1017.70 1018.02 1018.34 1018.54 1018.70 1018.86 1018.74 1018.70 1018.78 1018.94 1018.98 1019.06 1019.22 1019.34 1019.42 1019.58 1019.70
1016.30 1015.98 1015.74 1015.58 1015.38 1015.22 1015.30 1015.46 1015.46 1015.34 1015.38 1015.42 1015.50 1015.62 1015.66 1015.66 1015.66 1015.70 1015.86 1015.94 1016.02 1016.30 1016.62 1016.94 1017.22 1017.50 1017.66 1017.90 1018.06 1018.22 1018.38 1018.50 1018.42 1018.54 1018.74 1018.94 1018.94 1018.98 1019.02 1019.14 1019.38 1019.54
1016.26 1015.98 1015.70 1015.54 1015.38 1015.30 1015.06 1015.02 1015.06 1015.06 1015.10 1015.22 1015.34 1015.42 1015.54 1015.46 1015.46 1015.42 1015.54 1015.66 1015.78 1016.10 1016.42 1016.66 1016.98 1017.14 1017.38 1017.54 1017.74 1017.94 1018.14 1018.18 1018.10 1018.22 1018.38 1018.54 1018.58 1018.62 1018.74 1018.86 1019.06 1019.22
1016.30 1015.90 1015.66 1015.42 1015.34 1015.22 1015.18 1015.02 1014.86 1014.86 1014.90 1014.90 1015.02 1015.30 1015.42 1015.42 1015.34 1015.30 1015.34 1015.38 1015.58 1015.94 1016.22 1016.42 1016.58 1016.82 1016.90 1017.02 1017.30 1017.50 1017.66 1017.82 1017.82 1017.90 1018.10 1018.18 1018.26 1018.46 1018.54 1018.70 1018.78 1018.90
1016.46 1015.86 1015.46 1015.34 1015.30 1015.18 1015.14 1014.94 1014.82 1014.70 1014.74 1014.90 1014.98 1015.10 1015.18 1015.26 1015.22 1015.06 1015.06 1015.14 1015.34 1015.70 1015.94 1016.06 1016.22 1016.26 1016.34 1016.58 1016.82 1017.10 1017.42 1017.50 1017.50 1017.66 1017.90 1017.94 1018.06 1018.26 1018.38 1018.46 1018.58 1018.78
1016.66 1016.10 1015.62 1015.26 1015.18 1015.02 1014.98 1014.86 1014.66 1014.54 1014.54 1014.74 1014.90 1014.90 1014.90 1014.94 1014.94 1014.86 1014.78 1014.78 1015.02 1015.46 1015.70 1015.82 1015.94 1016.02 1015.98 1016.14 1016.46 1016.82 1017.10 1017.26 1017.30 1017.42 1017.58 1017.74 1017.90 1018.02 1018.10 1018.26 1018.58 1018.74
1017.02 1016.58 1016.02 1015.42 1015.06 1014.94 1014.82 1014.58 1014.42 1014.46 1014.54 1014.66 1014.70 1014.66 1014.74 1014.70 1014.62 1014.62 1014.54 1014.58 1014.86 1015.30 1015.62 1015.78 1015.82 1015.94 1015.94 1015.94 1016.10 1016.42 1016.78 1017.02 1017.14 1017.22 1017.30 1017.46 1017.62 1017.74 1017.82 1018.02 1018.30 1018.54
1017.38 1016.90 1016.50 1016.02 1015.30 1014.78 1014.58 1014.42 1014.42 1014.50 1014.62 1014.62 1014.50 1014.62 1014.58 1014.50 1014.42 1014.38 1014.42 1014.46 1014.74 1015.10 1015.38 1015.62 1015.82 1015.98 1016.10 1016.06 1016.10 1016.26 1016.58 1016.86 1017.02 1017.10 1017.18 1017.22 1017.34 1017.50 1017.62 1017.78 1018.02 1018.26
1017.58 1017.14 1016.74 1016.22 1015.66 1014.98 1014.54 1014.42 1014.38 1014.42 1014.46 1014.46 1014.26 1014.34 1014.38 1014.34 1014.30 1014.26 1014.30 1014.34 1014.46 1014.66 1014.90 1015.18 1015.46 1015.70 1015.82 1015.90 1015.98 1016.14 1016.42 1016.66 1016.82 1016.90 1016.94 1017.06 1017.22 1017.38 1017.50 1017.58 1017.70 1017.98
1017.70 1017.34 1016.90 1016.38 1015.82 1015.18 1014.54 1014.38 1014.38 1014.30 1014.18 1014.10 1014.06 1014.10 1014.14 1014.22 1014.30 1014.34 1014.30 1014.22 1014.10 1014.14 1014.38 1014.66 1014.94 1015.18 1015.42 1015.54 1015.70 1015.90 1016.14 1016.42 1016.70 1016.86 1016.98 1017.02 1017.10 1017.26 1017.38 1017.54 1017.70 1017.90
1017.90 1017.46 1016.98 1016.54 1015.94 1015.26 1014.58 1014.34 1014.38 1014.38 1014.34 1014.26 1014.18 1014.10 1014.10 1014.14 1014.22 1014.26 1014.22 1014.26 1014.18 1014.18 1014.22 1014.34 1014.54 1014.78 1014.98 1015.18 1015.38 1015.58 1015.82 1016.14 1016.46 1016.74 1016.90 1017.02 1017.14 1017.22 1017.34 1017.50 1017.82 1017.90
1018.14 1017.58 1017.06 1016.62 1016.18 1015.70 1015.10 1014.50 1014.18 1014.14 1014.18 1014.26 1014.22 1014.14 1014.06 1014.06 1014.10 1014.18 1014.26 1014.30 1014.22 1014.18 1014.22 1014.30 1014.42 1014.46 1014.54 1014.86 1015.14 1015.38 1015.50 1015.86 1016.22 1016.54 1016.74 1016.98 1017.14 1017.22 1017.34 1017.46 1017.70 1017.66
1018.34 1017.82 1017.30 1016.86 1016.50 1016.14 1015.74 1015.14 1014.78 1014.58 1014.42 1014.30 1014.14 1014.06 1014.10 1014.14 1014.18 1014.22 1014.26 1014.30 1014.30 1014.22 1014.26 1014.38 1014.34 1014.22 1014.38 1014.62 1014.74 1014.90 1015.22 1015.50 1015.90 1016.22 1016.50 1016.70 1016.94 1017.06 1017.22 1017.26 1017.42 1017.50
1018.62 1018.10 1017.58 1017.22 1016.90 1016.50 1015.98 1015.46 1014.98 1014.70 1014.54 1014.34 1014.14 1014.14 1014.26 1014.34 1014.34 1014.30 1014.30 1014.26 1014.18 1014.18 1014.38 1014.46 1014.38 1014.26 1014.50 1014.70 1014.86 1014.86 1014.82 1015.18 1015.58 1015.90 1016.14 1016.38 1016.62 1016.86 1017.06 1017.10 1017.10 1017.14
1019.02 1018.50 1017.94 1017.58 1017.18 1016.86 1016.54 1016.26 1015.70 1015.18 1014.90 1014.58 1014.30 1014.30 1014.34 1014.34 1014.42 1014.42 1014.46 1014.46 1014.30 1014.22 1014.38 1014.54 1014.66 1014.90 1014.74 1014.78 1014.94 1014.98 1014.94 1014.94 1015.22 1015.54 1015.86 1016.02 1016.26 1016.50 1016.66 1016.82 1016.90 1016.94
1019.50 1018.94 1018.46 1018.06 1017.70 1017.42 1017.10 1016.74 1016.46 1016.26 1016.18 1015.94 1015.54 1015.26 1014.90 1014.90 1014.94 1014.90 1014.86 1014.78 1014.58 1014.42 1014.54 1014.74 1014.98 1015.46 1015.06 1014.90 1014.90 1015.02 1015.14 1015.10 1014.94 1015.14 1015.46 1015.70 1015.86 1016.02 1016.14 1016.42 1016.58 1016.78
1019.98 1019.54 1019.06 1018.70 1018.34 1018.02 1017.70 1017.46 1017.22 1017.22 1017.14 1016.98 1016.78 1016.46 1016.30 1016.18 1015.90 1015.70 1015.54 1015.46 1015.30 1014.94 1014.90 1015.10 1015.18 1015.62 1015.42 1014.98 1014.90 1015.02 1015.22 1015.30 1014.90 1015.06 1015.22 1015.30 1015.42 1015.50 1015.70 1015.94 1016.14 1016.42
1020.34 1020.02 1019.62 1019.18 1018.86 1018.58 1018.38 1018.18 1018.06 1017.86 1017.62 1017.54 1017.50 1017.42 1017.26 1017.06 1016.94 1016.78 1016.58 1016.22 1015.94 1015.66 1015.22 1015.38 1015.86 1016.02 1015.50 1014.98 1014.82 1014.98 1015.14 1015.26 1014.90 1015.06 1015.14 1015.22 1015.42 1015.62 1015.78 1015.94 1016.10 1016.26
1020.74 1020.46 1020.06 1019.66 1019.38 1019.10 1018.86 1018.74 1018.62 1018.50 1018.34 1018.02 1017.86 1017.78 1017.70 1017.54 1017.38 1017.18 1017.10 1016.94 1016.70 1016.34 1016.06 1015.82 1015.98 1016.14 1015.86 1015.26 1014.82 1014.90 1015.18 1014.94 1014.86 1015.10 1015.30 1015.50 1015.70 1015.78 1015.86 1015.94 1016.06 1016.22
1021.06 1020.82 1020.54 1020.10 1019.82 1019.62 1019.42 1019.26 1019.14 1018.98 1018.86 1018.62 1018.34 1018.18 1018.06 1018.06 1018.06 1017.94 1017.78 1017.58 1017.42 1017.22 1016.94 1016.78 1016.58 1016.34 1016.06 1015.70 1015.10 1014.94 1014.82 1014.66 1014.98 1015.14 1015.50 1015.82 1016.02 1016.18 1016.22 1016.38 1016.46 1016.42
1021.38 1021.14 1020.94 1020.58 1020.26 1020.14 1019.98 1019.82 1019.62 1019.46 1019.30 1019.10 1018.86 1018.66 1018.50 1018.50 1018.38 1018.30 1018.34 1018.34 1018.22 1018.02 1017.90 1017.50 1017.30 1017.14 1016.42 1015.98 1015.78 1015.30 1014.74 1014.78 1014.94 1015.14 1015.66 1016.06 1016.38 1016.50 1016.50 1016.70 1017.10 1017.26
1021.78 1021.54 1021.26 1021.02 1020.74 1020.54 1020.38 1020.22 1020.06 1019.94 1019.74 1019.50 1019.34 1019.18 1019.10 1018.94 1018.82 1018.78 1018.66 1018.58 1018.66 1018.70 1018.46 1018.14 1017.94 1017.86 1017.26 1016.46 1016.10 1015.94 1015.42 1015.06 1015.10 1015.34 1015.74 1016.10 1016.38 1016.82 1017.02 1017.14 1017.42 1017.74
1022.06 1021.90 1021.70 1021.46 1021.30 1021.10 1020.82 1020.58 1020.46 1020.34 1020.22 1019.94 1019.78 1019.62 1019.54 1019.42 1019.34 1019.26 1019.18 1019.18 1018.94 1018.78 1018.82 1018.74 1018.62 1018.62 1018.30 1017.06 1016.50 1016.26 1016.10 1015.70 1015.30 1015.38 1015.78 1016.18 1016.42 1016.70 1017.10 1017.50 1017.66 1017.90
Thickness
5632 5633 5631 5630 5631 5629 5628 5630 5631 5632 5631 5630 5630 5631 5632 5633 5635 5636 5636 5635 5632 5629 5628 5627 5626 5622 5621 5622 5621 5619 5619 5619 5620 5620 5620 5619 5620 5619 5617 5616 5616 5617
5627 5628 5628 5627 5627 5625 5626 5629 5632 5633 5631 5628 5627 5627 5629 5630 5631 5632 5632 5632 5630 5628 5627 5626 5624 5621 5620 5620 5620 5619 5619 5619 5619 5619 5619 5618 5618 5617 5617 5615 5616 5617
5623 5624 5624 5624 5623 5624 5625 5627 5629 5630 5629 5626 5624 5623 5625 5628 5629 5629 5628 5628 5628 5627 5627 5625 5623 5621 5620 5619 5618 5617 5617 5616 5617 5617 5617 5617 5617 5616 5616 5616 5615 5616
5620 5620 5621 5622 5622 5622 5622 5622 5624 5625 5624 5622 5620 5620 5623 5626 5628 5627 5626 5626 5626 5626 5625 5623 5621 5620 5618 5616 5615 5614 5613 5614 5615 5616 5615 5615 5616 5615 5615 5615 5615 5616
5618 5618 5618 5617 5619 5620 5619 5618 5618 5620 5621 5620 5618 5618 5620 5624 5625 5626 5626 5625 5625 5625 5624 5622 5620 5620 5619 5616 5615 5614 5614 5614 5615 5616 5615 5615 5615 5615 5615 5615 5615 5614
5615 5615 5614 5613 5614 5616 5617 5616 5616 5618 5619 5618 5616 5616 5618 5621 5623 5625 5625 5624 5623 5623 5622 5621 5620 5619 5618 5617 5616 5615 5615 5615 5616 5616 5615 5615 5615 5615 5615 5615 5614 5614
5611 5612 5612 5610 5609 5611 5612 5613 5614 5616 5616 5615 5615 5614 5615 5617 5620 5622 5623 5622 5622 5620 5619 5620 5620 5619 5619 5619 5618 5617 5616 5615 5616 5617 5615 5615 5616 5614 5614 5614 5613 5613
5606 5608 5609 5608 5606 5606 5607 5608 5611 5613 5613 5612 5612 5612 5613 5615 5617 5620 5621 5621 5620 5618 5618 5618 5619 5620 5621 5621 5619 5618 5616 5615 5616 5616 5615 5615 5615 5614 5613 5613 5612 5611
5600 5603 5605 5605 5604 5603 5603 5605 5608 5609 5610 5609 5609 5609 5611 5613 5614 5617 5620 5622 5620 5618 5616 5616 5617 5619 5622 5622 5621 5618 5616 5615 5616 5616 5615 5615 5614 5613 5613 5612 5610 5609
5594 5596 5598 5599 5601 5601 5601 5603 5605 5606 5606 5606 5606 5607 5608 5610 5613 5616 5619 5621 5620 5617 5615 5614 5614 5616 5618 5620 5621 5618 5616 5615 5614 5614 5614 5614 5613 5613 5612 5611 5609 5607
5589 5590 5591 5593 5596 5598 5599 5600 5602 5601 5602 5603 5604 5604 5605 5608 5611 5614 5617 5619 5619 5616 5614 5613 5612 5613 5615 5617 5618 5617 5615 5614 5613 5612 5613 5612 5612 5611 5610 5610 5609 5607
5583 5585 5587 5588 5591 5594 5596 5597 5598 5598 5599 5601 5602 5603 5604 5606 5608 5611 5615 5617 5618 5618 5616 5614 5613 5613 5614 5615 5615 5615 5614 5612 5611 5611 5611 5611 5610 5609 5608 5609 5608 5607
5579 5580 5582 5584 5587 5590 5593 5594 5594 5595 5597 5599 5601 5602 5603 5604 5606 5608 5611 5615 5617 5618 5617 5616 5615 5614 5615 5614 5614 5614 5613 5612 5610 5609 5609 5609 5608 5608 5607 5606 5606 5605
5575 5577 5579 5581 5583 5587 5590 5592 5592 5593 5594 5596 5598 5601 5602 5603 5604 5605 5608 5611 5614 5616 5616 5615 5615 5615 5615 5614 5614 5614 5613 5611 5609 5608 5607 5607 5606 5605 5605 5603 5602 5602
5572 5574 5576 5578 5580 5582 5585 5588 5591 5592 5593 5594 5596 5599 5600 5601 5601 5603 5604 5607 5610 5612 5613 5613 5613 5615 5615 5615 5614 5614 5613 5611 5609 5607 5606 5604 5604 5603 5602 5602 5600 5600
5569 5571 5573 5575 5576 5578 5579 5583 5587 5589 5590 5592 5595 5597 5598 5598 5599 5600 5601 5603 5606 5608 5609 5609 5611 5614 5614 5613 5613 5614 5613 5611 5608 5606 5605 5603 5602 5601 5601 5600 5599 5599
5565 5567 5569 5570 5572 5573 5575 5578 5583 5586 5587 5590 5593 5595 5595 5595 5595 5597 5598 5599 5602 5605 5606 5606 5608 5610 5611 5610 5610 5611 5612 5611 5608 5606 5605 5603 5602 5601 5600 5599 5599 5599
5560 5562 5564 5566 5567 5569 5570 5572 5576 5579 5582 5585 5589 5590 5590 5591 5592 5593 5593 5595 5598 5601 5602 5602 5603 5604 5605 5607 5607 5607 5608 5608 5608 5606 5605 5603 5602 5600 5599 5599 5598 5598
5554 5556 5559 5561 5562 5564 5565 5566 5568 5570 5572 5575 5579 5581 5583 5585 5586 5587 5588 5589 5592 5595 5596 5597 5597 5597 5600 5603 5604 5603 5603 5604 5606 5605 5603 5603 5601 5601 5600 5599 5597 5596
5547 5549 5552 5554 5556 5557 5558 5560 5561 5561 5562 5564 5567 5570 5572 5574 5576 5578 5580 5582 5585 5588 5590 5591 5591 5591 5594 5598 5600 5600 5599 5599 5602 5602 5601 5601 5601 5600 5599 5597 5596 5595
5540 5543 5545 5547 5549 5551 5551 5552 5553 5554 5555 5556 5558 5559 5562 5564 5566 5569 5571 5574 5577 5581 5584 5585 5584 5585 5588 5593 5596 5596 5595 5596 5598 5598 5597 5598 5597 5597 5596 5594 5593 5593
5533 5535 5538 5540 5542 5544 5545 5546 5546 5546 5548 5550 5551 5553 5554 5556 5558 5560 5562 5566 5569 5572 5575 5577 5578 5579 5582 5587 5591 5591 5591 5593 5594 5593 5591 5592 5591 5591 5591 5590 5589 5589
5526 5528 5530 5532 5535 5537 5537 5538 5539 5539 5541 5543 5545 5547 5548 5548 5550 5551 5553 5556 5559 5561 5563 5567 5570 5573 5576 5580 5583 5586 5588 5589 5589 5588 5585 5585 5584 5584 5585 5584 5583 5583
5520 5521 5522 5524 5527 5529 5530 5531 5532 5533 5534 5536 5537 5539 5541 5542 5543 5544 5545 5547 5548 5550 5553 5557 5560 5563 5568 5573 5575 5578 5582 5584 5584 5582 5580 5578 5577 5577 5578 5577 5576 5575
5513 5514 5515 5517 5519 5520 5522 5524 5525 5525 5527 5528 5530 5531 5532 5535 5536 5537 5538 5539 5540 5541 5544 5548 5550 5552 5557 5563 5566 5569 5573 5576 5578 5577 5574 5572 5571 5570 5570 5569 5568 5567
5504 5506 5507 5509 5510 5512 5514 5516 5517 5518 5519 5520 5522 5524 5525 5526 5527 5529 5530 5531 5533 5534 5535 5538 5540 5541 5546 5554 5559 5561 5564 5567 5571 5571 5569 5567 5566 5564 5563 5562 5561 5560